This is the latest recevied weather packets stored in our database for station/object SQ8SW-4. If no packets are shown the sender has not sent any weather packets the latest 10 day(s).
| Time | Temp. | Humidity | Pressure | Rain* | Wind** | Luminosity | Snow |
|---|---|---|---|---|---|---|---|
| 1777462315 | 8.89° C | 39% | 996 hPa | - | - | - | - |
| 1777461413 | 8.89° C | 43% | 996 hPa | - | - | - | - |
| 1777460511 | 9.44° C | 44% | 996 hPa | - | - | - | - |
| 1777459608 | 9.44° C | 42% | 996 hPa | - | - | - | - |
| 1777458706 | 9.44° C | 41% | 996 hPa | - | - | - | - |
| 1777457804 | 9.44° C | 43% | 996 hPa | - | - | - | - |
| 1777456902 | 8.89° C | 44% | 996 hPa | - | - | - | - |
| 1777456000 | 8.33° C | 46% | 996 hPa | - | - | - | - |
| 1777455097 | 8.33° C | 47% | 996 hPa | - | - | - | - |
| 1777454195 | 8.33° C | 49% | 996 hPa | - | - | - | - |
| 1777453293 | 8.33° C | 50% | 996 hPa | - | - | - | - |
| 1777452391 | 8.33° C | 50% | 996 hPa | - | - | - | - |
| 1777451488 | 8.89° C | 50% | 996 hPa | - | - | - | - |
| 1777450586 | 8.33° C | 50% | 996 hPa | - | - | - | - |
| 1777449684 | 8.33° C | 51% | 996 hPa | - | - | - | - |
| 1777448782 | 8.33° C | 50% | 996 hPa | - | - | - | - |
| 1777447880 | 8.33° C | 50% | 996 hPa | - | - | - | - |
| 1777446977 | 7.78° C | 50% | 996 hPa | - | - | - | - |
| 1777446075 | 6.67° C | 54% | 996 hPa | - | - | - | - |
| 1777445173 | 6.11° C | 57% | 996 hPa | - | - | - | - |
| 1777444271 | 5.56° C | 61% | 996 hPa | - | - | - | - |
| 1777443369 | 4.44° C | 62% | 996 hPa | - | - | - | - |
| 1777442466 | 3.89° C | 63% | 996 hPa | - | - | - | - |
| 1777441564 | 3.33° C | 66% | 996 hPa | - | - | - | - |
| 1777440662 | 2.78° C | 65% | 996 hPa | - | - | - | - |
* Rain since midnight (hover to see other rain measurements)
** Current wind speed in m/s (hover to see current wind gust speed)